Weather History for Kelso-Longview, WA

Change the Weather History Date:

Friday, April 11, 2014

  Actual Average Record
Temperature  
Mean Temperature 52 °F -  
Max Temperature 66 °F 55 °F 82 °F (2004)
Min Temperature 37 °F 38 °F 30 °F (2008)
Degree Days  
Heating Degree Days 14    
Growing Degree Days 2 (Base 50)    
Moisture  
Dew Point 40 °F    
Average Humidity 69    
Maximum Humidity 93    
Minimum Humidity 45    
Precipitation  
Precipitation 0.00 in - - ()
Sea Level Pressure  
Sea Level Pressure 30.15 in    
Wind  
Wind Speed 3 mph (NW)    
Max Wind Speed 10 mph    
Max Gust Speed 17 mph    
Visibility 10 miles    
Events      
Averages and records for this station are not official NWS values.
T = Trace of Precipitation, MM = Missing Value Source: NWS Daily Summary

Daily Weather History Graph

Daily Weather History Graph

Search for Another Location

Airport:

Trip Planner

Search our weather history database for the weather conditions in past years. The results will help you decide how hot, cold, wet, or windy it might be!

Date:

Astronomy

Apr. 11, 2014 Rise Set
Actual Time 6:32 AM PDT 7:53 PM PDT
Civil Twilight 6:01 AM PDT 8:24 PM PDT
Nautical Twilight 5:23 AM PDT 9:02 PM PDT
Astronomical Twilight 4:44 AM PDT 9:42 PM PDT
Moon 4:29 PM PDT (4/11) 4:41 AM PDT (4/11)
Length of Visible Light 14h 23m
Length of Day
13h 21m
Waxing Gibbous, 87% of the Moon is Illuminated
Apr 11
Waxing Gibbous
Apr 15
Full
Apr 22
Last Quarter
Apr 28
New
May 6
First Quarter

Hourly Weather History & Observations

Time (PDT) Temp. Windchill Dew Point Humidity Pressure Visibility Wind Dir Wind Speed Gust Speed Precip Events Conditions
12:15 AM 46.4 °F - 39.2 °F 76% 30.19 in 10.0 mi Calm Calm - N/A   Clear
12:35 AM 44.6 °F - 39.2 °F 81% 30.19 in 10.0 mi Calm Calm - N/A   Clear
12:55 AM 44.6 °F - 39.2 °F 81% 30.20 in 10.0 mi Calm Calm - N/A   Clear
1:15 AM 44.6 °F - 37.4 °F 76% 30.19 in 10.0 mi Calm Calm - N/A   Clear
1:35 AM 42.8 °F - 37.4 °F 81% 30.20 in 10.0 mi Calm Calm - N/A   Clear
1:55 AM 42.8 °F - 37.4 °F 81% 30.20 in 10.0 mi Calm Calm - N/A   Clear
2:15 AM 42.8 °F 41.1 °F 37.4 °F 81% 30.20 in 10.0 mi North 3.5 mph - N/A   Clear
2:35 AM 42.8 °F 41.1 °F 37.4 °F 81% 30.20 in 10.0 mi NNW 3.5 mph - N/A   Clear
2:55 AM 42.8 °F - 37.4 °F 81% 30.20 in 10.0 mi Calm Calm - N/A   Clear
3:15 AM 41.0 °F - 37.4 °F 87% 30.20 in 10.0 mi Calm Calm - N/A   Clear
3:35 AM 41.0 °F - 35.6 °F 81% 30.19 in 10.0 mi Calm Calm - N/A   Clear
3:55 AM 39.2 °F - 35.6 °F 87% 30.19 in 10.0 mi Calm Calm - N/A   Clear
4:15 AM 39.2 °F - 35.6 °F 87% 30.20 in 10.0 mi Calm Calm - N/A   Clear
4:35 AM 39.2 °F - 33.8 °F 81% 30.19 in 10.0 mi Calm Calm - N/A   Clear
4:55 AM 39.2 °F - 33.8 °F 81% 30.19 in 10.0 mi Calm Calm - N/A   Clear
5:15 AM 37.4 °F - 33.8 °F 87% 30.19 in 10.0 mi Calm Calm - N/A   Clear
5:35 AM 37.4 °F - 33.8 °F 87% 30.19 in 10.0 mi Calm Calm - N/A   Clear
5:55 AM 37.4 °F - 33.8 °F 87% 30.19 in 10.0 mi Calm Calm - N/A   Clear
6:15 AM 37.4 °F 34.9 °F 33.8 °F 87% 30.19 in 10.0 mi NNW 3.5 mph - N/A   Partly Cloudy
6:35 AM 37.4 °F - 33.8 °F 87% 30.19 in 10.0 mi Calm Calm - N/A   Partly Cloudy
6:55 AM 37.4 °F - 35.6 °F 93% 30.20 in 10.0 mi Calm Calm - N/A   Scattered Clouds
7:15 AM 37.4 °F - 33.8 °F 87% 30.20 in 10.0 mi Calm Calm - N/A   Mostly Cloudy
7:35 AM 39.2 °F 35.9 °F 33.8 °F 81% 30.20 in 10.0 mi WNW 4.6 mph - N/A   Scattered Clouds
7:55 AM 39.2 °F 35.9 °F 35.6 °F 87% 30.21 in 10.0 mi WNW 4.6 mph - N/A   Clear
8:15 AM 42.8 °F 41.1 °F 37.4 °F 81% 30.21 in 10.0 mi NW 3.5 mph - N/A   Clear
8:35 AM 44.6 °F 42.2 °F 37.4 °F 76% 30.21 in 10.0 mi North 4.6 mph - N/A   Scattered Clouds
8:55 AM 44.6 °F 42.2 °F 37.4 °F 76% 30.21 in 10.0 mi NW 4.6 mph - N/A   Scattered Clouds
9:15 AM 44.6 °F 40.7 °F 39.2 °F 81% 30.21 in 10.0 mi NNW 6.9 mph - N/A   Partly Cloudy
9:35 AM 46.4 °F 42.4 °F 39.2 °F 76% 30.20 in 10.0 mi NNW 8.1 mph - N/A   Partly Cloudy
9:55 AM 48.2 °F - 39.2 °F 71% 30.20 in 10.0 mi NW 5.8 mph - N/A   Clear
10:15 AM 48.2 °F - 39.2 °F 71% 30.20 in 10.0 mi NNW 8.1 mph - N/A   Clear
10:35 AM 51.8 °F - 39.2 °F 62% 30.19 in 10.0 mi NNW 8.1 mph - N/A   Clear
10:55 AM 53.6 °F - 39.2 °F 58% 30.19 in 10.0 mi NNW 8.1 mph - N/A   Clear
11:15 AM 53.6 °F - 41.0 °F 62% 30.19 in 10.0 mi WNW 4.6 mph - N/A   Clear
11:35 AM 55.4 °F - 42.8 °F 63% 30.18 in 10.0 mi Calm Calm - N/A   Clear
11:55 AM 55.4 °F - 41.0 °F 58% 30.17 in 10.0 mi WSW 5.8 mph - N/A   Clear
12:15 PM 57.2 °F - 42.8 °F 59% 30.17 in 10.0 mi Calm Calm - N/A   Clear
12:35 PM 59.0 °F - 41.0 °F 51% 30.16 in 10.0 mi NE 3.5 mph - N/A   Clear
12:55 PM 59.0 °F - 42.8 °F 55% 30.15 in 10.0 mi Calm Calm - N/A   Clear
1:15 PM 60.8 °F - 42.8 °F 52% 30.15 in 10.0 mi West 4.6 mph - N/A   Clear
1:35 PM 60.8 °F - 42.8 °F 52% 30.14 in 10.0 mi WSW 4.6 mph - N/A   Clear
1:55 PM 62.6 °F - 42.8 °F 48% 30.14 in 10.0 mi NW 5.8 mph - N/A   Partly Cloudy
2:15 PM 64.4 °F - 42.8 °F 45% 30.13 in 10.0 mi WNW 3.5 mph - N/A   Mostly Cloudy
2:35 PM 64.4 °F - 44.6 °F 49% 30.12 in 10.0 mi NNW 4.6 mph - N/A   Overcast
2:55 PM 64.4 °F - 44.6 °F 49% 30.11 in 10.0 mi WNW 6.9 mph - N/A   Mostly Cloudy
3:15 PM 64.4 °F - 44.6 °F 49% 30.10 in 10.0 mi West 8.1 mph - N/A   Mostly Cloudy
3:35 PM 64.4 °F - 42.8 °F 45% 30.09 in 10.0 mi North 6.9 mph - N/A   Overcast
3:55 PM 64.4 °F - 44.6 °F 49% 30.08 in 10.0 mi WNW 3.5 mph - N/A   Mostly Cloudy
4:15 PM 66.2 °F - 46.4 °F 49% 30.08 in 10.0 mi West 4.6 mph - N/A   Overcast
4:35 PM 64.4 °F - 46.4 °F 52% 30.07 in 10.0 mi WNW 6.9 mph - N/A   Mostly Cloudy
4:55 PM 64.4 °F - 46.4 °F 52% 30.08 in 10.0 mi WNW 6.9 mph 16.1 mph N/A   Partly Cloudy
5:15 PM 62.6 °F - 46.4 °F 55% 30.08 in 10.0 mi West 10.4 mph 16.1 mph N/A   Partly Cloudy
5:35 PM 60.8 °F - 44.6 °F 55% 30.07 in 10.0 mi WNW 9.2 mph 17.3 mph N/A   Clear
5:55 PM 60.8 °F - 44.6 °F 55% 30.07 in 10.0 mi West 8.1 mph - N/A   Clear
6:15 PM 60.8 °F - 44.6 °F 55% 30.07 in 10.0 mi West 6.9 mph - N/A   Mostly Cloudy
6:35 PM 59.0 °F - 44.6 °F 59% 30.07 in 10.0 mi WNW 8.1 mph - N/A   Mostly Cloudy
6:55 PM 57.2 °F - 44.6 °F 63% 30.07 in 10.0 mi WNW 6.9 mph - N/A   Scattered Clouds
7:15 PM 57.2 °F - 42.8 °F 59% 30.07 in 10.0 mi WNW 8.1 mph 16.1 mph N/A   Partly Cloudy
7:35 PM 55.4 °F - 44.6 °F 67% 30.07 in 10.0 mi West 6.9 mph - N/A   Clear
7:55 PM 53.6 °F - 42.8 °F 67% 30.08 in 10.0 mi WNW 4.6 mph - N/A   Clear
8:15 PM 53.6 °F - 42.8 °F 67% 30.08 in 10.0 mi WNW 6.9 mph - N/A   Clear
8:35 PM 51.8 °F - 42.8 °F 71% 30.09 in 10.0 mi WNW 5.8 mph - N/A   Clear
8:55 PM 51.8 °F - 42.8 °F 71% 30.10 in 10.0 mi NNW 5.8 mph - N/A   Clear
9:15 PM 51.8 °F - 42.8 °F 71% 30.11 in 10.0 mi NNW 5.8 mph - N/A   Partly Cloudy
9:35 PM 50.0 °F - 41.0 °F 71% 30.11 in 10.0 mi WNW 3.5 mph - N/A   Partly Cloudy
9:55 PM 50.0 °F - 41.0 °F 71% 30.11 in 10.0 mi NW 4.6 mph - N/A   Partly Cloudy
10:15 PM 50.0 °F - 39.2 °F 66% 30.11 in 10.0 mi NNE 3.5 mph - N/A   Partly Cloudy
10:35 PM 48.2 °F - 39.2 °F 71% 30.11 in 10.0 mi NNE 3.5 mph - N/A   Partly Cloudy
10:55 PM 48.2 °F - 41.0 °F 76% 30.11 in 10.0 mi Calm Calm - N/A   Mostly Cloudy
11:15 PM 48.2 °F - 41.0 °F 76% 30.11 in 10.0 mi NNW 3.5 mph - N/A   Overcast
11:35 PM 50.0 °F - 39.2 °F 66% 30.11 in 10.0 mi NNW 4.6 mph - N/A   Overcast
11:55 PM 50.0 °F - 39.2 °F 66% 30.11 in 10.0 mi NNW 4.6 mph - N/A   Overcast